User: anonymous   Login
Location: Unspecified
(0.0000°N, 0.0000°E)
Time: 04:24:36
(UTC+00:00)
Language:

Geos 2 (Explorer 36) - Orbit

View from above orbital plane
View from above orbital plane
View from above satellite
View from above satellite

Ground track
Ground track

The orbit data is extracted from the following two-line orbital elements,

1  3093U 68002A   19054.56857307 -.00000099  00000-0 -83489-4 0  9997
2  3093 105.8011 277.4722 0318272 120.2477 271.6863 12.83528610395107
Epoch (UTC): 23 February 2019 13:38:44
Eccentricity: 0.0318272
inclination: 105.8011°
perigee height: 1082 km
apogee height: 1572 km
right ascension of ascending node: 277.4722°
argument of perigee: 120.2477°
revolutions per day: 12.83528610
mean anomaly at epoch: 271.6863°
orbit number at epoch: 39510

The dashed part of the orbit path shows where the satellite is in the earth's shadow,  

DLR